When you browse on this site, cookies collect data to enhance your experience and personalize the content and advertising you see.
Visit our Privacy Policy to learn more. By continuing to use the site, you agree to this use of cookies and data.
  • In Hungary
  • List of Countries
  • For 7 days
  • Water Temperature
  • Weather Map
  • News
  • Weather Widgets
  • user-avatar
    Login

    Hourly Weather Marburg an der Lahn

    Today, 12 December, Thursday

    Time Temperature Precipitation Wind Pressure Humidity
    00:00 +2°C° 0 mm 2 mps 734 mmHg 98%
    01:00 +2°C° 0 mm 2 mps 734 mmHg 97%
    02:00 +2°C° 0 mm 2 mps 734 mmHg 96%
    03:00 +2°C° 0 mm 2 mps 734 mmHg 96%
    04:00 +2°C° 0 mm 2 mps 733 mmHg 95%
    05:00 +2°C° 0 mm 2 mps 733 mmHg 95%
    06:00 +2°C° 0 mm 2 mps 733 mmHg 96%
    07:00 +2°C° 0 mm 2 mps 733 mmHg 95%
    08:00 +2°C° 0.1 mm 2 mps 733 mmHg 96%
    09:00 +3°C° 0.1 mm 2 mps 733 mmHg 96%
    10:00 +3°C° 0.1 mm 2 mps 733 mmHg 97%
    11:00 +3°C° 0.1 mm 2 mps 733 mmHg 94%
    12:00 +4°C° 0.1 mm 2 mps 732 mmHg 92%
    13:00 +4°C° 0 mm 2 mps 733 mmHg 90%
    14:00 +3°C° 0.1 mm 3 mps 732 mmHg 89%
    15:00 +2°C° 0.1 mm 3 mps 731 mmHg 88%
    16:00 +2°C° 0.1 mm 3 mps 730 mmHg 88%
    17:00 +1°C° 0 mm 3 mps 730 mmHg 88%
    18:00 +1°C° 0 mm 3 mps 729 mmHg 89%
    19:00 0°C° 0 mm 3 mps 729 mmHg 89%
    20:00 0°C° 0 mm 3 mps 728 mmHg 90%
    21:00 -1°C° 0 mm 3 mps 727 mmHg 91%
    22:00 -2°C° 0 mm 4 mps 726 mmHg 92%
    23:00 -2°C° 0 mm 4 mps 725 mmHg 90%

    Tomorrow, 13 December, Friday

    Time Temperature Precipitation Wind Pressure Humidity
    00:00 -2°C° 0 mm 4 mps 723 mmHg 88%
    01:00 -2°C° 0 mm 4 mps 722 mmHg 86%
    02:00 -2°C° 0.1 mm 5 mps 721 mmHg 87%
    03:00 -3°C° 0.1 mm 6 mps 719 mmHg 88%
    04:00 -2°C° 0.1 mm 6 mps 718 mmHg 89%
    05:00 -2°C° 0.6 mm 6 mps 716 mmHg 91%
    06:00 -2°C° 0.6 mm 6 mps 715 mmHg 94%
    07:00 -1°C° 0.6 mm 6 mps 714 mmHg 96%
    08:00 0°C° 0.9 mm 5 mps 714 mmHg 97%
    09:00 0°C° 0.9 mm 5 mps 713 mmHg 97%
    10:00 0°C° 0.9 mm 5 mps 713 mmHg 97%
    11:00 0°C° 1.1 mm 4 mps 713 mmHg 97%
    12:00 +1°C° 1.1 mm 4 mps 713 mmHg 96%
    13:00 +2°C° 1.1 mm 3 mps 713 mmHg 96%
    14:00 +2°C° 0.1 mm 3 mps 713 mmHg 96%
    15:00 +1°C° 0.1 mm 4 mps 713 mmHg 96%
    16:00 +1°C° 0.1 mm 4 mps 713 mmHg 96%
    17:00 +1°C° 0.3 mm 4 mps 714 mmHg 96%
    18:00 +1°C° 0.3 mm 4 mps 715 mmHg 97%
    19:00 +3°C° 0.3 mm 4 mps 716 mmHg 97%
    20:00 +3°C° 1 mm 4 mps 717 mmHg 96%
    21:00 +2°C° 1 mm 5 mps 718 mmHg 95%
    22:00 +2°C° 1 mm 6 mps 719 mmHg 94%
    23:00 +2°C° 0.2 mm 6 mps 720 mmHg 93%

    Day after tomorrow, 14 December, Saturday

    Time Temperature Precipitation Wind Pressure Humidity
    00:00 +2°C° 0.2 mm 5 mps 721 mmHg 93%
    01:00 +2°C° 0.2 mm 5 mps 722 mmHg 93%
    02:00 +2°C° 0.1 mm 5 mps 722 mmHg 92%
    03:00 +2°C° 0.1 mm 5 mps 723 mmHg 92%
    04:00 +2°C° 0.1 mm 5 mps 723 mmHg 91%
    05:00 +1°C° 0.2 mm 5 mps 723 mmHg 93%
    06:00 +1°C° 0.2 mm 5 mps 722 mmHg 94%
    07:00 -1°C° 0.2 mm 6 mps 722 mmHg 95%
    08:00 +2°C° 0.8 mm 6 mps 722 mmHg 93%
    09:00 +3°C° 0.8 mm 6 mps 722 mmHg 91%
    10:00 +4°C° 0.8 mm 7 mps 722 mmHg 89%
    11:00 +4°C° 0.4 mm 7 mps 723 mmHg 85%
    12:00 +2°C° 0.4 mm 8 mps 725 mmHg 80%
    13:00 +2°C° 0.4 mm 8 mps 726 mmHg 75%
    14:00 +3°C° 0 mm 7 mps 727 mmHg 76%
    15:00 +2°C° 0 mm 6 mps 728 mmHg 76%
    16:00 +2°C° 0 mm 5 mps 729 mmHg 77%
    17:00 +3°C° 0.3 mm 4 mps 729 mmHg 83%
    18:00 +3°C° 0.3 mm 4 mps 730 mmHg 89%
    19:00 +3°C° 0.3 mm 4 mps 730 mmHg 96%
    20:00 +4°C° 0.4 mm 4 mps 730 mmHg 93%
    21:00 +4°C° 0.4 mm 4 mps 730 mmHg 91%
    22:00 +5°C° 0.4 mm 5 mps 731 mmHg 89%
    23:00 +4°C° 0 mm 4 mps 731 mmHg 89%

    15 December, Sunday

    Time Temperature Precipitation Wind Pressure Humidity
    00:00 +4°C° 0 mm 4 mps 731 mmHg 90%
    01:00 +4°C° 0 mm 3 mps 731 mmHg 91%
    02:00 +4°C° 0.3 mm 4 mps 730 mmHg 92%
    03:00 +4°C° 0.3 mm 4 mps 729 mmHg 93%
    04:00 +4°C° 0.3 mm 4 mps 728 mmHg 94%
    05:00 +5°C° 0.7 mm 5 mps 729 mmHg 91%
    06:00 +6°C° 0.7 mm 5 mps 729 mmHg 87%
    07:00 +7°C° 0.7 mm 6 mps 730 mmHg 84%
    08:00 +7°C° 0.2 mm 6 mps 731 mmHg 82%
    09:00 +6°C° 0.2 mm 5 mps 732 mmHg 80%
    10:00 +5°C° 0.2 mm 4 mps 733 mmHg 78%
    11:00 +5°C° 0 mm 4 mps 734 mmHg 75%
    12:00 +5°C° 0 mm 5 mps 734 mmHg 71%
    13:00 +6°C° 0 mm 5 mps 735 mmHg 68%
    14:00 +5°C° 0 mm 4 mps 736 mmHg 71%
    15:00 +4°C° 0 mm 3 mps 736 mmHg 74%
    16:00 +4°C° 0 mm 3 mps 736 mmHg 78%
    17:00 +3°C° 0 mm 3 mps 737 mmHg 80%
    18:00 +3°C° 0 mm 3 mps 737 mmHg 81%
    19:00 +3°C° 0 mm 2 mps 737 mmHg 83%
    20:00 +2°C° 0 mm 3 mps 737 mmHg 85%
    21:00 +3°C° 0 mm 3 mps 738 mmHg 86%
    22:00 +3°C° 0 mm 3 mps 738 mmHg 87%
    23:00 +3°C° 0 mm 3 mps 738 mmHg 90%

    16 December, Monday

    Time Temperature Precipitation Wind Pressure Humidity
    00:00 +3°C° 0 mm 3 mps 737 mmHg 92%
    01:00 +3°C° 0 mm 3 mps 737 mmHg 95%
    02:00 +5°C° 0.6 mm 2 mps 737 mmHg 96%
    03:00 +5°C° 0.6 mm 2 mps 737 mmHg 97%
    04:00 +5°C° 0.6 mm 2 mps 737 mmHg 98%
    05:00 +6°C° 0.4 mm 2 mps 737 mmHg 98%
    06:00 +6°C° 0.4 mm 2 mps 738 mmHg 98%
    07:00 +6°C° 0.4 mm 2 mps 738 mmHg 98%
    08:00 +6°C° 0.3 mm 2 mps 738 mmHg 98%
    09:00 +6°C° 0.3 mm 2 mps 738 mmHg 98%
    10:00 +7°C° 0.3 mm 2 mps 738 mmHg 98%
    11:00 +7°C° 0.4 mm 2 mps 738 mmHg 98%
    12:00 +7°C° 0.4 mm 2 mps 738 mmHg 97%
    13:00 +8°C° 0.4 mm 1 mps 738 mmHg 97%
    14:00 +8°C° 0.4 mm 1 mps 737 mmHg 96%
    15:00 +7°C° 0.4 mm 2 mps 737 mmHg 95%
    16:00 +7°C° 0.4 mm 2 mps 737 mmHg 95%
    17:00 +7°C° 0.3 mm 2 mps 737 mmHg 95%
    18:00 +7°C° 0.3 mm 2 mps 737 mmHg 95%
    19:00 +7°C° 0.3 mm 2 mps 737 mmHg 95%
    20:00 +7°C° 0 mm 2 mps 737 mmHg 93%
    21:00 +7°C° 0 mm 2 mps 736 mmHg 91%
    22:00 +7°C° 0 mm 2 mps 736 mmHg 90%
    23:00 +7°C° 0 mm 2 mps 736 mmHg 88%

    17 December, Tuesday

    Time Temperature Precipitation Wind Pressure Humidity
    00:00 +6°C° 0 mm 2 mps 736 mmHg 86%
    01:00 +6°C° 0 mm 2 mps 736 mmHg 85%
    02:00 +6°C° 0 mm 2 mps 736 mmHg 85%
    03:00 +6°C° 0 mm 2 mps 736 mmHg 85%
    04:00 +6°C° 0 mm 2 mps 736 mmHg 85%
    05:00 +6°C° 0 mm 2 mps 736 mmHg 83%
    06:00 +6°C° 0 mm 2 mps 736 mmHg 81%
    07:00 +7°C° 0 mm 2 mps 736 mmHg 80%
    08:00 +7°C° 0 mm 3 mps 737 mmHg 79%
    09:00 +7°C° 0 mm 3 mps 737 mmHg 77%
    10:00 +7°C° 0 mm 4 mps 737 mmHg 76%
    11:00 +7°C° 0 mm 4 mps 737 mmHg 77%
    12:00 +8°C° 0 mm 5 mps 737 mmHg 77%
    13:00 +9°C° 0 mm 5 mps 737 mmHg 77%
    14:00 +9°C° 0.2 mm 5 mps 737 mmHg 80%
    15:00 +8°C° 0.2 mm 4 mps 737 mmHg 82%
    16:00 +8°C° 0.2 mm 4 mps 738 mmHg 85%
    17:00 +8°C° 0.7 mm 4 mps 738 mmHg 88%
    18:00 +8°C° 0.7 mm 4 mps 738 mmHg 90%
    19:00 +8°C° 0.7 mm 4 mps 739 mmHg 93%
    20:00 +7°C° 0.7 mm 4 mps 740 mmHg 92%
    21:00 +8°C° 0.7 mm 3 mps 741 mmHg 92%
    22:00 +8°C° 0.7 mm 3 mps 741 mmHg 92%
    23:00 +7°C° 0.1 mm 3 mps 742 mmHg 91%
    Show more